HO-113
1 50466U 21131B 24214.85581677 .00001034 00000-0 34413-3 0 9995
2 50466 98.5279 299.7142 0003984 7.2484 352.8761 14.39762839136572
Tevel-3
1 50988U 22002E 24214.46855397 .02456360 91802-2 22349-2 0 9996
2 50988 97.3497 293.6456 0013169 259.5628 100.4175 16.14716927142215
Tevel-8
1 50989U 22002F 24214.83398558 .02367168 75494-2 21499-2 0 9990
2 50989 97.3583 294.1300 0013967 260.0598 99.9112 16.14298925142266
Tevel-1
1 51013U 22002AF 24214.82982221 .02234616 57484-2 20998-2 0 9997
2 51013 97.3607 293.8503 0014142 259.2318 100.7375 16.13330161142269
IRIS-A
1 51044U 22002BN 24214.43134033 .00038762 00000-0 11858-2 0 9995
2 51044 97.3820 280.8383 0005445 217.6225 142.4637 15.33727355141352
Tevel-7
1 51062U 22002CG 24214.73828389 .03046478 23961-5 19483-2 0 9996
2 51062 97.3557 294.0385 0013891 262.4974 97.4736 16.17313079142257
Tevel-4
1 51063U 22002CH 24214.83705850 .01786717 24814-2 21121-2 0 9997
2 51063 97.3623 293.9025 0013499 256.4903 103.4876 16.09005987142250
Tevel-2
1 51069U 22002CP 24214.77400167 .02922843 23891-5 19677-2 0 9992
2 51069 97.3502 293.9589 0013997 261.2237 98.7465 16.16605723142267
OreSat0
1 52017U 22026K 24214.49976183 .00139881 00000-0 15448-2 0 9991
2 52017 97.4898 231.1088 0010586 73.3571 286.8848 15.62535559132760
Planetum 1
1 52738U 22057G 24214.31896807 .00066195 00000-0 13455-2 0 9993
2 52738 97.5687 342.2453 0004064 335.3517 24.7537 15.46075038121532
Foresail-1
1 52766U 22057AL 24214.88129750 .00027513 00000-0 83209-3 0 9998
2 52766 97.5862 341.5443 0008363 330.9968 29.0809 15.34146694121451
SNUGLITE 2
1 52899U 22065F 24214.87505489 .00002413 00000-0 50078-3 0 9990
2 52899 98.1249 355.1543 0007896 19.5621 340.5882 14.61038583110931
IO-117
1 53106U 22080B 24214.10458479 -.00000003 00000-0 00000-0 0 9992
2 53106 70.1369 176.9169 0007576 97.1713 262.9808 6.42557460 48157
SelfieSat
1 53951U 22057BC 24214.84369905 .00231312 00000-0 19937-2 0 9999
2 53951 97.5669 347.8992 0006214 290.3463 69.7130 15.68539482121910
FO-118
1 54684U 22167C 24214.86804266 .00038930 00000-0 12109-2 0 9996
2 54684 97.6089 0.8861 0009004 344.1230 15.9728 15.33174304 91295
SSS-2B
1 56184U 23054G 24214.81243552 .00054780 00000-0 11576-2 0 9997
2 56184 97.3628 113.2995 0006635 39.2164 320.9564 15.44969960 73176
CIRBE
1 56188U 23054L 24214.68265642 .00125670 00000-0 14782-2 0 9999
2 56188 97.3541 115.9841 0003712 74.4427 285.7240 15.61000842 73363
INSPIRE-Sat 7
1 56211U 23054AK 24214.52606539 .00168702 00000-0 16903-2 0 9993
2 56211 97.3549 117.2900 0002534 48.7157 311.4321 15.64993029 73429
RoseyCubesat 1
1 56212U 23054AL 24214.53745847 .00212517 00000-0 14753-2 0 9996
2 56212 97.3552 118.5445 0002623 94.1054 266.0510 15.73808381 73502
SO-120
1 56992U 23084BU 24214.78329384 .00043871 00000-0 14430-2 0 9992
2 56992 97.5343 334.7425 0011848 221.4163 138.6181 15.31324298 63154
MRC-100
1 56993U 23084BV 24214.87955620 .00054367 00000-0 16407-2 0 9999
2 56993 97.5341 335.4062 0011214 220.6892 139.3513 15.34030224 63215
UmKA 1 (RS40S)
1 57172U 23091G 24214.85458656 .00007257 00000-0 47162-3 0 9991
2 57172 97.6091 266.4498 0015413 330.3265 29.7088 15.08220629 60376
CubeBel-2 (EU11S)
1 57175U 23091K 24214.84762323 .00010361 00000-0 65559-3 0 9992
2 57175 97.6088 266.4471 0013959 342.7156 17.3595 15.09107564 60374
VERONIKA
1 58261U 23174F 24214.81921317 .00027268 00000-0 11512-2 0 9991
2 58261 97.4590 289.2370 0012588 87.4063 272.8615 15.23168784 40652
KAFASAT
1 58317U 23174BP 24214.85993662 .00034242 00000-0 12870-2 0 9997
2 58317 97.4534 290.0602 0010733 65.8129 294.4231 15.27033252 40720
ENSO
1 58470U 23185J 24214.89717677 .00023467 00000-0 93891-3 0 9993
2 58470 97.4243 281.1827 0013537 118.3802 241.8803 15.24998551 37102
EIRSAT-1
1 58472U 23185L 24214.85093362 .00027157 00000-0 10613-2 0 9999
2 58472 97.4239 281.2207 0013096 119.6574 240.5970 15.25759656 37105
SO-121
1 58567U 23174CY 24214.70123650 .00083909 00000-0 24075-2 0 9994
2 58567 97.4508 290.7371 0009430 75.6580 284.5709 15.35504849 40757
SONATE-2
1 59112U 24043Q 24214.88195716 .00016495 00000-0 77025-3 0 9998
2 59112 97.4828 338.2727 0015511 133.0658 227.1878 15.19788769 22740
KASHIWA
1 59508U 98067WH 24214.85290321 .00746568 24808-3 18805-2 0 9995
2 59508 51.6211 75.4968 0008825 219.2787 140.7581 15.94959417 17708
MESAT1
1 60209U 24125G 24214.86089997 .00016165 00000-0 75002-3 0 9996
2 60209 97.3200 66.8859 0027158 160.7785 199.4481 15.19782011 4352
GRBBeta
1 60237U 24128C 24214.57412739 .00005375 00000-0 48014-3 0 9996
2 60237 61.9949 83.0393 0010920 298.6183 61.3806 14.97042773 3396
ROBUSTA-3A
1 60243U 24128J 24214.59149051 .00007948 00000-0 72100-3 0 9990
2 60243 61.9925 83.1098 0012737 270.1754 89.7874 14.95958145 3405
CatSat
1 60246U 24125J 24214.67696125 .00012687 00000-0 57892-3 0 9995
2 60246 97.3022 68.0263 0054200 116.5062 244.1745 15.19405794 2442
/EX
1
0
The following satellite has been removed from this week's AMSAT TLE distribution:
MO-110 NORAD Cat ID 47964 Decayed from orbit on or about 28 July 2024
GRBBeta has now been associated with NORAD Cat ID 60237
Thanks to Nico PA0DLO for the update on GRBBeta
Joe Fitzgerald KM1P
AMSAT Orbital Elements Manager
1
0
The following satellite has been removed from this week's AMSAT TLE distribution:
TEVEL-6 NORAD Cat ID 50999 Decayed from orbit on or about 19 July 2024
The following satellite has been added to this week's AMSAT TLE distribution:
CatSat NORAD Cat ID 60246 Downlinks on 437.185 MHz and 10470.00 MHz have been coordinated
Thanks to Nico PA0DLO for identifying the new spacecraft.
Joe Fitzgerald KM1P
AMSAT Orbital Elements Manager
1
0
SB KEPS @ AMSAT $ORB24208.1
2Line Orbital Elements 24208.AMSAT
QST de W1STR
AMSAT Orbital Elements for Amateur Satellites in TLE Format
>From Orbital Analysis Office
New England Sci-Tech STEM Education Center
Natick, MA July 26, 2024
To all radio amateurs
These element sets describe the orbits of various satellites
in use by the amateur radio community. For details see:
www.amsat.org/keplerian-elements-formats/
A daily update of element sets is available at:
www.amsat.org/tle/daily-bulletin.txt
or without bulletin text:
www.amsat.org/tle/dailytle.txt
AO-07
1 07530U 74089B 24207.47191549 -.00000035 00000-0 70142-4 0 9995
2 07530 101.9794 202.4801 0012384 13.0493 141.7876 12.53677281274079
UO-11
1 14781U 84021B 24206.97899560 .00002958 00000-0 33670-3 0 9999
2 14781 97.7071 175.1249 0006864 321.8433 38.2297 14.86925116154106
AO-27
1 22825U 93061C 24207.58748584 .00000286 00000-0 12724-3 0 9997
2 22825 98.7861 260.7591 0007817 333.5502 26.5280 14.30529204608371
FO-29
1 24278U 96046B 24207.27263158 .00000061 00000-0 94452-4 0 9992
2 24278 98.5797 136.9343 0351145 89.5996 274.5365 13.53194544379587
NOAA-15
1 25338U 98030A 24207.81125921 .00000353 00000-0 16382-3 0 9999
2 25338 98.5672 234.1293 0009775 205.6297 154.4400 14.26638278362942
GO-32
1 25397U 98043D 24207.88086653 .00000183 00000-0 99714-4 0 9995
2 25397 98.9240 175.1866 0002278 66.8226 293.3192 14.24075436353144
